[Date Prev][Date Next][Thread Prev][Thread Next] - [Date Index][Thread Index][Author Index]
2 Line ISS Keps 2-20
- Subject: [sarex] 2 Line ISS Keps 2-20
- From: "Dave Larsen PhD" <doc@xxxxxxxxxxx>
- Date: Fri, 20 Feb 2004 02:05:13 -0800
ISS
1 25544U 98067A 04051.17605324 .00015067 00000-0 14201-3 0 2328
2 25544 51.6280 206.5947 0006641 185.7335 167.9158 15.67284239299796
----
Via the sarex mailing list at AMSAT.ORG courtesy of AMSAT-NA.
To unsubscribe, send "unsubscribe sarex" to Majordomo@amsat.org
AMSAT Home